Location: Cherry Springs State Park
(41.6616°N, 77.8240°W)
Time: 03:25:58
(UTC-05:00)

Amateur Radio Satellites - All Passes

Search period start: 22 January 2018 02:55
Search period end: 23 January 2018 02:55
Location: Cherry Springs State Park, 41.6616°N, 77.8240°W

Satellite Date Start Highest point End Downlink Frequencies (MHz)
Time Altitude Azimuth
AO-91 22 Jan 03:07:41 03:10:19 15° 294° (WNW) 03:13:05 145.960
ITAMSAT 1 22 Jan 03:11:36 03:15:42 23° 94° (E) 03:19:48 435.822/435.867
Gurwin Techsat 1B 22 Jan 03:38:26 03:41:47 17° 299° (WNW) 03:45:06 435.225
ITUPSAT 1 22 Jan 03:43:46 03:47:59 31° 263° (W) 03:52:15 437.325
Oscar 19 22 Jan 03:44:21 03:45:51 11° 303° (WNW) 03:47:21 437.125/150
KKS-1 22 Jan 03:46:59 03:50:15 21° 65° (ENE) 03:53:31 437.445
nSIGHT-1 22 Jan 04:00:28 04:01:33 11° 230° (SW) 04:02:40 .
STARS 22 Jan 04:01:23 04:02:49 11° 61° (ENE) 04:04:14 437.465
MOZHAYETS 4 22 Jan 04:06:31 04:07:41 11° 271° (W) 04:08:50
CUBESAT XI-V 22 Jan 04:09:09 04:13:29 37° 262° (W) 04:17:51 437.345
FALCONSAT 3 22 Jan 04:13:31 04:16:30 23° 167° (SSE) 04:19:30 435.103
AO-7 22 Jan 04:15:59 04:24:23 81° 291° (WNW) 04:32:42 .
ISS 22 Jan 04:18:36 04:19:55 12° 230° (SW) 04:21:14 437.550
DOVE 4 22 Jan 04:23:02 04:26:55 30° 97° (E) 04:30:59 437.250
BEESAT 22 Jan 04:25:15 04:27:14 12° 270° (W) 04:29:15 436.000
ITAMSAT 1 22 Jan 04:50:24 04:55:19 44° 291° (WNW) 05:00:14 435.822/435.867
SO-50 22 Jan 05:08:25 05:12:50 68° 120° (ESE) 05:17:20 436.795
M-CUBED/EXP-1 PRIME 22 Jan 05:15:43 05:19:03 66° 107° (ESE) 05:22:15 437.505
XW-2B 22 Jan 05:17:13 05:19:06 13° 91° (E) 05:20:58 145.730 - 145.750
KKS-1 22 Jan 05:22:25 05:26:32 38° 262° (W) 05:30:41 437.445
STARS 22 Jan 05:34:10 05:38:31 74° 257° (WSW) 05:42:54 437.465
LilacSat-2 22 Jan 05:45:51 05:49:19 33° 97° (E) 05:52:43 437.200
XW-2C 22 Jan 05:46:24 05:49:46 31° 97° (E) 05:53:07 145.795 - 145.815
FALCONSAT 3 22 Jan 05:51:51 05:55:07 30° 182° (S) 05:58:23 435.103
STRAND 1 22 Jan 06:00:39 06:05:04 31° 67° (ENE) 06:09:31 437.568
DOVE 4 22 Jan 06:00:54 06:04:30 25° 291° (WNW) 06:08:15 437.250
AO-7 22 Jan 06:10:21 06:15:53 20° 311° (NW) 06:21:24 .
KAITUO 1B 22 Jan 06:17:05 06:20:42 52° 100° (E) 06:24:17 145.475/437.950
XW-2F 22 Jan 06:21:09 06:24:54 81° 102° (ESE) 06:28:36 145.980 - 146.000
NUDT-PHONESAT 22 Jan 06:25:31 06:29:10 63° 101° (E) 06:32:46 437.300
XW-2D 22 Jan 06:32:05 06:35:49 64° 284° (WNW) 06:39:30 145.860 - 145.880
CUTE-I 22 Jan 06:32:40 06:38:01 74° 103° (ESE) 06:43:20 437.470
SEEDS 22 Jan 06:34:16 06:37:15 19° 93° (E) 06:40:11 437.485
HO-68 22 Jan 06:42:09 06:48:58 44° 99° (E) 06:55:43 435.675
FO-29 22 Jan 06:45:55 06:52:10 42° 69° (ENE) 06:57:44 435.910
CUTE 1.7 + AOD 2 22 Jan 06:48:44 06:52:48 46° 99° (E) 06:56:50 437.475
XW-2B 22 Jan 06:49:55 06:53:27 40° 287° (WNW) 06:56:57 145.730 - 145.750
SO-50 22 Jan 06:50:40 06:53:45 18° 320° (NW) 06:56:53 436.795
RS-15 22 Jan 07:11:37 07:22:59 46° 109° (ESE) 07:34:13 29.354- 29.394
CUBEBUG 2 22 Jan 07:14:52 07:19:36 61° 100° (E) 07:24:16 437.445
UWE-3 22 Jan 07:17:32 07:21:51 36° 96° (E) 07:26:05 435.000/436.395/437.385
LilacSat-2 22 Jan 07:20:49 07:23:18 17° 293° (WNW) 07:25:46 437.200
XW-2C 22 Jan 07:21:08 07:23:43 18° 293° (WNW) 07:26:16 145.795 - 145.815
FALCONSAT 3 22 Jan 07:31:00 07:33:40 19° 197° (SSW) 07:36:19 435.103
ZACube-1 22 Jan 07:38:11 07:42:13 30° 95° (E) 07:46:10 437.345
STRAND 1 22 Jan 07:39:39 07:44:11 32° 264° (W) 07:48:44 437.568
AO-73 22 Jan 07:44:03 07:48:05 30° 95° (E) 07:52:00 145.935
AAUSAT CUBESAT 2 22 Jan 07:46:09 07:50:09 51° 99° (E) 07:54:08 437.432
KAITUO 1B 22 Jan 07:53:07 07:54:11 11° 296° (WNW) 07:55:15 145.475/437.950
XW-2A 22 Jan 07:57:23 08:00:42 57° 101° (E) 08:03:58 145.665 - 145.685
SEEDS 22 Jan 08:09:13 08:13:01 35° 289° (WNW) 08:16:47 437.485
YUBILEINY 22 Jan 08:10:42 08:15:28 15° 58° (ENE) 08:20:10 435.215
CUTE-I 22 Jan 08:14:19 08:17:25 16° 300° (WNW) 08:20:31 437.470
Oscar 11 22 Jan 08:15:33 08:19:39 40° 98° (E) 08:23:42 .
CUTE 1.7 + AOD 2 22 Jan 08:25:43 08:28:14 16° 295° (WNW) 08:30:45 437.475
HO-68 22 Jan 08:30:06 08:36:31 37° 297° (WNW) 08:42:56 435.675
FO-29 22 Jan 08:31:13 08:37:14 33° 263° (W) 08:42:42 435.910
BEESAT 3 22 Jan 08:40:18 08:43:38 26° 114° (ESE) 08:47:00 437.485
TIGRISAT 22 Jan 08:50:08 08:54:25 53° 73° (ENE) 08:58:53 435.000
PRISM 22 Jan 08:52:36 08:54:32 13° 63° (ENE) 08:56:28 437.425
CUBEBUG 2 22 Jan 08:52:50 08:55:40 16° 297° (WNW) 08:58:29 437.445
UWE-3 22 Jan 08:54:21 08:58:04 24° 293° (WNW) 09:01:45 435.000/436.395/437.385
PCSat 22 Jan 09:00:42 09:05:38 37° 111° (ESE) 09:10:35 145.827
UNISAT 6 22 Jan 09:05:42 09:10:08 86° 77° (ENE) 09:14:43 437.425
O/OREOS (USA 219) 22 Jan 09:12:32 09:16:16 25° 58° (ENE) 09:19:59 437.305
ZACube-1 22 Jan 09:14:34 09:18:21 26° 292° (WNW) 09:22:05 437.345
AO-73 22 Jan 09:20:25 09:24:10 26° 292° (WNW) 09:27:51 145.935
AAUSAT CUBESAT 2 22 Jan 09:23:02 09:25:09 14° 296° (WNW) 09:27:16 437.432
RS-15 22 Jan 09:23:03 09:35:12 60° 311° (NW) 09:47:10 29.354- 29.394
BEESAT 2 22 Jan 09:32:02 09:35:18 24° 113° (ESE) 09:38:36 435.950
DELFI C3 22 Jan 09:43:36 09:47:33 74° 102° (ESE) 09:51:28 145.870
Oscar 11 22 Jan 09:52:28 09:55:29 19° 294° (WNW) 09:58:28 .
Max Valier Satellite 22 Jan 10:03:49 10:07:33 87° 106° (ESE) 10:11:12 145.860
YUBILEINY 22 Jan 10:05:11 10:13:57 75° 81° (E) 10:22:37 435.215
DUCHIFAT 1 22 Jan 10:10:35 10:11:23 10° 61° (ENE) 10:12:11 145.980
EO-79 22 Jan 10:12:05 10:14:27 15° 64° (ENE) 10:16:50 145.935-145.965
AIST 2D 22 Jan 10:12:58 10:16:18 41° 73° (ENE) 10:19:38 435.315
BEESAT 3 22 Jan 10:17:33 10:21:03 29° 311° (NW) 10:24:36 437.485
EO-88 22 Jan 10:18:52 10:22:31 86° 102° (ESE) 10:26:08 145.990 - 145.960
PRISM 22 Jan 10:25:22 10:29:20 53° 259° (W) 10:33:19 437.425
TIGRISAT 22 Jan 10:29:00 10:31:28 15° 270° (W) 10:33:58 435.000
PCSat 22 Jan 10:44:09 10:49:02 33° 309° (NW) 10:53:57 145.827
ESTCUBE 1 22 Jan 10:44:18 10:47:19 18° 92° (E) 10:50:19 437.505/2401.250
POLYITAN 1 22 Jan 10:45:49 10:49:36 33° 70° (ENE) 10:53:27 437.675
O/OREOS (USA 219) 22 Jan 10:51:42 10:55:41 32° 255° (WSW) 10:59:40 437.305
NANOSAT C BR1 22 Jan 10:59:43 11:03:40 41° 71° (ENE) 11:07:40 145.865
BEESAT 2 22 Jan 11:09:15 11:12:52 32° 310° (NW) 11:16:31 435.950
QB50P2 22 Jan 11:15:10 11:19:23 80° 78° (ENE) 11:23:41 145.880/145.840
LO-87 22 Jan 11:32:59 11:36:39 85° 103° (ESE) 11:40:16 145.935 - 145.965
RS-15 22 Jan 11:41:12 11:50:58 26° 341° (NNW) 12:00:31 29.354- 29.394
Gurwin Techsat 1B 22 Jan 11:41:26 11:44:24 15° 60° (ENE) 11:47:23 435.225
Oscar 19 22 Jan 11:41:48 11:45:28 20° 62° (ENE) 11:49:06 437.125/150
DUCHIFAT 1 22 Jan 11:42:12 11:46:23 76° 258° (WSW) 11:50:39 145.980
EO-79 22 Jan 11:45:39 11:49:46 51° 260° (W) 11:53:56 145.935-145.965
AIST 2D 22 Jan 11:48:32 11:49:38 11° 269° (W) 11:50:46 435.315
AO-85 22 Jan 11:54:07 11:58:05 81° 305° (NW) 12:02:20 145.980
SPROUT 22 Jan 11:56:56 12:00:28 24° 95° (E) 12:03:58 437.525
SO-50 22 Jan 12:00:36 12:02:30 12° 35° (NE) 12:04:23 436.795
YUBILEINY 22 Jan 12:03:29 12:09:46 23° 281° (W) 12:16:03 435.215
VELOX 1 22 Jan 12:12:49 12:16:01 20° 94° (E) 12:19:13 145.980
ESTCUBE 1 22 Jan 12:20:03 12:24:18 44° 289° (WNW) 12:28:32 437.505/2401.250
POLYITAN 1 22 Jan 12:22:12 12:25:26 21° 266° (W) 12:28:43 437.675
AO-91 22 Jan 12:28:13 12:31:24 40° 72° (ENE) 12:34:43 145.960
NANOSAT C BR1 22 Jan 12:36:48 12:39:33 17° 268° (W) 12:42:19 145.865
BUGSAT 1 22 Jan 12:37:06 12:41:10 82° 257° (WSW) 12:45:21 437.445
Gurwin Techsat 1B 22 Jan 13:18:23 13:23:41 76° 257° (WSW) 13:29:01 435.225
Oscar 19 22 Jan 13:19:13 13:24:19 56° 259° (W) 13:29:28 437.125/150
AO-7 22 Jan 13:23:45 13:30:56 34° 57° (ENE) 13:38:08 .
SPROUT 22 Jan 13:32:35 13:36:18 29° 291° (WNW) 13:40:02 437.525
AO-85 22 Jan 13:37:35 13:39:17 12° 325° (NW) 13:41:02 145.980
SO-50 22 Jan 13:39:10 13:43:52 64° 55° (NE) 13:48:35 436.795
UKube-1 22 Jan 13:44:06 13:47:25 21° 95° (E) 13:50:42 .
VELOX 1 22 Jan 13:48:30 13:52:35 38° 289° (WNW) 13:56:39 145.980
DX 1 22 Jan 13:58:57 14:03:12 52° 100° (E) 14:07:27 434.975-435.025
RS-15 22 Jan 13:59:27 14:08:59 26° 17° (NNE) 14:18:07 29.354- 29.394
50 SAT 22 Jan 13:59:46 14:02:48 47° 101° (E) 14:05:48 437.505
MOZHAYETS 4 22 Jan 14:21:16 14:24:18 17° 92° (E) 14:27:18
ITAMSAT 1 22 Jan 14:29:33 14:34:15 37° 68° (ENE) 14:38:59 435.822/435.867
BEESAT 22 Jan 14:45:12 14:48:19 17° 92° (E) 14:51:24 436.000
AO-7 22 Jan 15:15:01 15:23:14 60° 256° (WSW) 15:31:31 .
UKube-1 22 Jan 15:19:35 15:23:29 34° 290° (WNW) 15:27:21 .
SO-50 22 Jan 15:21:02 15:23:50 16° 251° (WSW) 15:26:38 436.795
DOVE 4 22 Jan 15:29:05 15:32:46 29° 70° (ENE) 15:36:22 437.250
DX 1 22 Jan 15:36:25 15:38:57 15° 297° (WNW) 15:41:29 434.975-435.025
NO-84 22 Jan 15:38:45 15:41:05 19° 130° (SE) 15:43:18 435.350 FM
ITUPSAT 1 22 Jan 15:43:08 15:47:56 64° 102° (ESE) 15:52:42 437.325
MOZHAYETS 4 22 Jan 15:57:14 16:01:41 48° 288° (WNW) 16:06:06
M-CUBED/EXP-1 PRIME 22 Jan 16:00:20 16:04:40 90° 300° (WNW) 16:08:42 437.505
CUBESAT XI-V 22 Jan 16:04:56 16:09:27 52° 100° (E) 16:13:55 437.345
ITAMSAT 1 22 Jan 16:09:25 16:13:46 27° 265° (W) 16:18:09 435.822/435.867
RS-15 22 Jan 16:13:03 16:24:42 59° 48° (NE) 16:35:41 29.354- 29.394
CUTE-I 22 Jan 16:17:18 16:20:36 17° 61° (ENE) 16:23:53 437.470
BEESAT 22 Jan 16:21:42 16:26:21 52° 288° (WNW) 16:30:59 436.000
LilacSat-2 22 Jan 16:28:19 16:31:01 18° 67° (ENE) 16:33:43 437.200
XW-2C 22 Jan 16:28:21 16:30:51 17° 67° (ENE) 16:33:21 145.795 - 145.815
BEESAT 3 22 Jan 16:56:29 16:59:20 19° 44° (NE) 17:02:09 437.485
KAITUO 1B 22 Jan 16:57:05 17:00:10 25° 70° (ENE) 17:03:16 145.475/437.950
XW-2F 22 Jan 17:01:39 17:05:10 37° 72° (ENE) 17:08:41 145.980 - 146.000
NUDT-PHONESAT 22 Jan 17:04:24 17:07:37 28° 71° (ENE) 17:10:50 437.300
DOVE 4 22 Jan 17:07:07 17:10:28 22° 265° (W) 17:13:47 437.250
HO-68 22 Jan 17:11:16 17:17:32 34° 62° (ENE) 17:23:49 435.675
KKS-1 22 Jan 17:12:41 17:16:50 37° 98° (E) 17:20:58 437.445
XW-2D 22 Jan 17:12:45 17:16:30 58° 75° (ENE) 17:20:16 145.860 - 145.880
NO-84 22 Jan 17:15:12 17:18:05 35° 324° (NW) 17:20:49 435.350 FM
ITUPSAT 1 22 Jan 17:22:26 17:25:13 15° 299° (WNW) 17:27:58 437.325
STARS 22 Jan 17:23:53 17:27:04 19° 94° (E) 17:30:15 437.465
SEEDS 22 Jan 17:26:46 17:29:03 14° 64° (ENE) 17:31:21 437.485
XW-2B 22 Jan 17:30:21 17:34:11 87° 257° (WSW) 17:38:01 145.730 - 145.750
CUTE 1.7 + AOD 2 22 Jan 17:41:18 17:45:09 33° 70° (ENE) 17:48:59 437.475
CUBESAT XI-V 22 Jan 17:43:27 17:46:23 17° 296° (WNW) 17:49:18 437.345
PCSat 22 Jan 17:48:01 17:52:56 33° 51° (NE) 17:57:48 145.827
BEESAT 2 22 Jan 17:49:04 17:51:57 19° 44° (NE) 17:54:48 435.950
CUTE-I 22 Jan 17:54:46 18:00:04 68° 258° (WSW) 18:05:22 437.470
XW-2C 22 Jan 18:01:13 18:04:44 34° 263° (W) 18:08:16 145.795 - 145.815
LilacSat-2 22 Jan 18:01:34 18:05:03 32° 263° (W) 18:08:32 437.200
CUBEBUG 2 22 Jan 18:12:45 18:16:59 48° 72° (ENE) 18:21:23 437.445
UWE-3 22 Jan 18:14:30 18:18:20 29° 68° (ENE) 18:22:16 435.000/436.395/437.385
RS-15 22 Jan 18:26:08 18:36:42 43° 252° (WSW) 18:46:49 29.354- 29.394
XW-2A 22 Jan 18:28:48 18:31:19 19° 69° (ENE) 18:33:50 145.665 - 145.685
KAITUO 1B 22 Jan 18:31:07 18:34:05 22° 265° (W) 18:37:02 145.475/437.950
BEESAT 3 22 Jan 18:33:19 18:37:04 44° 243° (WSW) 18:40:44 437.485
ZACube-1 22 Jan 18:34:00 18:37:38 25° 67° (ENE) 18:41:20 437.345
AAUSAT CUBESAT 2 22 Jan 18:36:08 18:39:50 33° 71° (ENE) 18:43:34 437.432
XW-2F 22 Jan 18:37:10 18:39:23 15° 268° (W) 18:41:38 145.980 - 146.000
NUDT-PHONESAT 22 Jan 18:38:45 18:41:26 19° 266° (W) 18:44:09 437.300
AO-73 22 Jan 18:39:32 18:43:10 25° 67° (ENE) 18:46:51 145.935
AO-85 22 Jan 18:44:54 18:48:01 17° 40° (NE) 18:51:14 145.980
KKS-1 22 Jan 18:49:45 18:53:08 22° 294° (WNW) 18:56:31 437.445
HO-68 22 Jan 18:58:10 19:05:02 48° 260° (W) 19:11:55 435.675
STARS 22 Jan 18:59:25 19:03:32 39° 290° (WNW) 19:07:39 437.465
nSIGHT-1 22 Jan 19:00:06 19:02:23 18° 133° (SE) 19:04:40 .
SEEDS 22 Jan 19:00:11 19:04:18 51° 260° (W) 19:08:25 437.485
Oscar 11 22 Jan 19:10:20 19:14:12 32° 70° (ENE) 19:18:04 .
CUTE 1.7 + AOD 2 22 Jan 19:17:48 19:21:01 21° 267° (W) 19:24:15 437.475
ISS 22 Jan 19:21:10 19:23:39 20° 134° (SE) 19:26:09 437.550
BEESAT 2 22 Jan 19:26:02 19:29:55 47° 242° (WSW) 19:33:42 435.950
PCSat 22 Jan 19:31:22 19:36:20 37° 249° (WSW) 19:41:16 145.827
FO-29 22 Jan 19:39:45 19:44:12 29° 96° (E) 19:48:46 435.910
STRAND 1 22 Jan 19:49:00 19:54:11 85° 103° (ESE) 19:59:20 437.568
UWE-3 22 Jan 19:50:56 19:54:44 27° 266° (W) 19:58:37 435.000/436.395/437.385
CUBEBUG 2 22 Jan 19:51:11 19:53:54 16° 270° (W) 19:56:39 437.445
XW-2A 22 Jan 20:01:05 20:03:52 23° 265° (W) 20:06:38 145.665 - 145.685
ZACube-1 22 Jan 20:09:44 20:13:44 32° 264° (W) 20:17:50 437.345
AAUSAT CUBESAT 2 22 Jan 20:12:20 20:15:21 19° 267° (W) 20:18:22 437.432
AO-73 22 Jan 20:15:14 20:19:13 32° 264° (W) 20:23:18 145.935
AO-85 22 Jan 20:24:05 20:29:05 88° 57° (ENE) 20:34:22 145.980
DELFI C3 22 Jan 20:28:37 20:32:16 40° 72° (ENE) 20:35:56 145.870
nSIGHT-1 22 Jan 20:35:13 20:38:18 49° 329° (NNW) 20:41:23 .
Max Valier Satellite 22 Jan 20:42:19 20:45:46 37° 72° (ENE) 20:49:15 145.860
TIGRISAT 22 Jan 20:43:19 20:45:05 12° 89° (E) 20:46:51 435.000
Oscar 11 22 Jan 20:46:54 20:50:21 23° 266° (W) 20:53:50 .
EO-88 22 Jan 20:56:14 20:59:34 34° 72° (ENE) 21:02:55 145.990 - 145.960
ISS 22 Jan 20:56:45 20:59:54 47° 330° (NNW) 21:03:06 437.550
UNISAT 6 22 Jan 20:57:51 21:01:12 19° 92° (E) 21:04:32 437.425
YUBILEINY 22 Jan 21:14:07 21:19:05 17° 76° (ENE) 21:24:02 435.215
FO-29 22 Jan 21:24:47 21:29:22 33° 293° (WNW) 21:34:01 435.910
STRAND 1 22 Jan 21:30:19 21:32:38 13° 301° (WNW) 21:34:57 437.568
ESTCUBE 1 22 Jan 21:44:11 21:47:11 18° 64° (ENE) 21:50:13 437.505/2401.250
DELFI C3 22 Jan 22:04:58 22:07:11 15° 268° (W) 22:09:23 145.870
AO-85 22 Jan 22:06:46 22:08:55 13° 253° (WSW) 22:11:06 145.980
PRISM 22 Jan 22:06:49 22:09:45 19° 94° (E) 22:12:39 437.425
LO-87 22 Jan 22:08:50 22:12:02 32° 72° (ENE) 22:15:15 145.935 - 145.965
NO-84 22 Jan 22:10:38 22:12:36 17° 28° (NNE) 22:14:35 435.350 FM
nSIGHT-1 22 Jan 22:12:57 22:15:02 16° 349° (NNW) 22:17:05 .
TIGRISAT 22 Jan 22:17:33 22:22:14 71° 285° (WNW) 22:26:54 435.000
Max Valier Satellite 22 Jan 22:17:37 22:19:43 14° 268° (W) 22:21:50 145.860
EO-88 22 Jan 22:31:13 22:33:18 15° 268° (W) 22:35:24 145.990 - 145.960
UNISAT 6 22 Jan 22:33:37 22:38:06 44° 288° (WNW) 22:42:32 437.425
ISS 22 Jan 22:34:49 22:36:59 16° 349° (N) 22:39:10 437.550
SPROUT 22 Jan 22:50:37 22:53:41 20° 66° (ENE) 22:56:46 437.525
QB50P2 22 Jan 23:01:25 23:03:24 13° 91° (E) 23:05:23 145.880/145.840
YUBILEINY 22 Jan 23:05:38 23:14:28 85° 96° (E) 23:23:18 435.215
AIST 2D 22 Jan 23:10:10 23:13:33 48° 99° (E) 23:16:54 435.315
VELOX 1 22 Jan 23:10:26 23:13:29 19° 65° (ENE) 23:16:32 145.980
ESTCUBE 1 22 Jan 23:19:15 23:23:37 47° 261° (W) 23:28:00 437.505/2401.250
O/OREOS (USA 219) 22 Jan 23:25:11 23:28:57 26° 103° (ESE) 23:32:42 437.305
DUCHIFAT 1 22 Jan 23:26:49 23:29:34 17° 92° (E) 23:32:17 145.980
EO-79 22 Jan 23:30:15 23:33:46 24° 95° (E) 23:37:14 145.935-145.965
PRISM 22 Jan 23:41:23 23:45:05 34° 290° (WNW) 23:48:46 437.425
LO-87 22 Jan 23:43:23 23:45:30 15° 267° (W) 23:47:38 145.935 - 145.965
NO-84 22 Jan 23:47:08 23:49:54 48° 225° (SW) 23:52:46 435.350 FM
nSIGHT-1 22 Jan 23:50:11 23:52:08 15° 9° (N) 23:54:05 .
POLYITAN 1 23 Jan 00:05:18 00:09:34 60° 101° (E) 00:13:47 437.675
ISS 23 Jan 00:12:17 00:14:26 16° 10° (N) 00:16:34 437.550
AO-91 23 Jan 00:18:19 00:19:43 11° 91° (E) 00:21:09 145.960
NANOSAT C BR1 23 Jan 00:18:46 00:23:03 75° 101° (ESE) 00:27:18 145.865
BUGSAT 1 23 Jan 00:19:48 00:22:08 14° 91° (E) 00:24:27 437.445
50 SAT 23 Jan 00:25:21 00:26:57 13° 67° (ENE) 00:28:32 437.505
SPROUT 23 Jan 00:25:21 00:29:18 37° 263° (W) 00:33:16 437.525
QB50P2 23 Jan 00:35:18 00:39:30 55° 287° (WNW) 00:43:40 145.880/145.840
UKube-1 23 Jan 00:38:54 00:41:59 20° 65° (ENE) 00:45:04 .
VELOX 1 23 Jan 00:45:27 00:49:36 42° 261° (W) 00:53:47 145.980
AIST 2D 23 Jan 00:45:52 00:46:15 10° 295° (WNW) 00:46:38 435.315
DX 1 23 Jan 00:54:22 00:58:30 46° 72° (ENE) 01:02:38 434.975-435.025
DUCHIFAT 1 23 Jan 01:01:22 01:05:24 42° 288° (WNW) 01:09:24 145.980
O/OREOS (USA 219) 23 Jan 01:04:16 01:08:14 30° 300° (WNW) 01:12:12 437.305
EO-79 23 Jan 01:05:46 01:09:29 29° 291° (WNW) 01:13:11 145.935-145.965
YUBILEINY 23 Jan 01:06:06 01:12:24 21° 297° (WNW) 01:18:45 435.215
MOZHAYETS 4 23 Jan 01:23:26 01:26:33 18° 64° (ENE) 01:29:40
nSIGHT-1 23 Jan 01:25:55 01:28:56 40° 28° (NNE) 01:31:58 .
Oscar 19 23 Jan 01:30:29 01:35:31 50° 100° (E) 01:40:30 437.125/150
Gurwin Techsat 1B 23 Jan 01:34:29 01:39:31 41° 99° (E) 01:44:31 435.225
POLYITAN 1 23 Jan 01:42:45 01:44:49 13° 297° (WNW) 01:46:53 437.675
ISS 23 Jan 01:48:22 01:51:32 44° 30° (NNE) 01:54:41 437.550
BEESAT 23 Jan 01:51:39 01:55:13 21° 64° (ENE) 01:58:47 436.000
AO-91 23 Jan 01:51:53 01:56:28 80° 284° (WNW) 02:01:31 145.960
BUGSAT 1 23 Jan 01:53:37 01:57:44 49° 287° (WNW) 02:01:49 437.445
50 SAT 23 Jan 01:55:44 01:58:23 26° 263° (W) 02:01:03 437.505
NANOSAT C BR1 23 Jan 01:57:03 01:58:07 11° 299° (WNW) 01:59:11 145.865
UKube-1 23 Jan 02:13:43 02:17:43 38° 262° (W) 02:21:45 .
DX 1 23 Jan 02:32:17 02:34:54 16° 267° (W) 02:37:32 434.975-435.025
ITAMSAT 1 23 Jan 02:44:02 02:45:59 12° 89° (E) 02:47:57 435.822/435.867
